Time,TemperatureF,DewpointF,PressureIn,WindDirection,WindDirectionDegrees,WindSpeedMPH,WindSpeedGustMPH,Humidity,HourlyPrecipIn,Conditions,Clouds,dailyrainin,SoftwareType,DateUTC
2013-03-15 00:00:00,47.7,41.0,30.10,NNW,339,0.0,-999.0,78,-99.99,,,0.00,weatherlink.com 1.10,2013-03-15 07:00:00,
2013-03-15 00:15:00,47.1,41.0,30.09,NNW,339,0.0,-999.0,80,-99.99,,,0.00,weatherlink.com 1.10,2013-03-15 07:15:00,
2013-03-15 00:30:00,46.7,41.0,30.08,NNW,339,0.0,-999.0,81,-99.99,,,0.00,weatherlink.com 1.10,2013-03-15 07:30:00,
2013-03-15 00:45:00,46.5,41.0,30.09,NNW,339,0.0,-999.0,82,-99.99,,,0.00,weatherlink.com 1.10,2013-03-15 07:45:00,
2013-03-15 01:00:00,46.4,41.0,30.09,NNW,339,0.0,-999.0,81,-99.99,,,0.00,weatherlink.com 1.10,2013-03-15 08:00:00,
2013-03-15 01:15:00,45.8,41.0,30.10,NNW,339,0.0,-999.0,82,-99.99,,,0.00,weatherlink.com 1.10,2013-03-15 08:15:00,
2013-03-15 01:30:00,45.8,41.0,30.10,NNW,339,0.0,-999.0,82,-99.99,,,0.00,weatherlink.com 1.10,2013-03-15 08:30:00,
2013-03-15 01:45:00,45.8,41.0,30.10,NNW,339,0.0,-999.0,83,-99.99,,,0.00,weatherlink.com 1.10,2013-03-15 08:45:00,
2013-03-15 02:00:00,45.4,41.0,30.10,NNW,339,0.0,-999.0,83,-99.99,,,0.00,weatherlink.com 1.10,2013-03-15 09:00:00,
2013-03-15 02:15:00,45.1,40.0,30.10,NNW,339,0.0,-999.0,83,-99.99,,,0.00,weatherlink.com 1.10,2013-03-15 09:15:00,
2013-03-15 02:30:00,44.5,40.0,30.10,NNW,339,0.0,-999.0,84,-99.99,,,0.00,weatherlink.com 1.10,2013-03-15 09:30:00,
2013-03-15 02:45:00,44.1,40.0,30.10,NNW,339,0.0,-999.0,84,-99.99,,,0.00,weatherlink.com 1.10,2013-03-15 09:45:00,
2013-03-15 03:01:00,43.5,39.0,30.09,NNW,339,0.0,-999.0,85,-99.99,,,0.00,weatherlink.com 1.10,2013-03-15 10:01:00,
2013-03-15 03:16:00,43.5,40.0,30.09,NNW,339,0.0,-999.0,87,-99.99,,,0.00,weatherlink.com 1.10,2013-03-15 10:16:00,
2013-03-15 03:31:00,43.5,40.0,30.09,NNW,339,0.0,-999.0,87,-99.99,,,0.00,weatherlink.com 1.10,2013-03-15 10:31:00,
2013-03-15 03:46:00,43.5,40.0,30.08,NNW,339,0.0,-999.0,87,-99.99,,,0.00,weatherlink.com 1.10,2013-03-15 10:46:00,
2013-03-15 04:01:00,43.5,40.0,30.08,NNW,339,0.0,-999.0,87,-99.99,,,0.00,weatherlink.com 1.10,2013-03-15 11:01:00,
2013-03-15 04:16:00,43.3,40.0,30.07,NNW,339,0.0,-999.0,87,-99.99,,,0.00,weatherlink.com 1.10,2013-03-15 11:16:00,
2013-03-15 04:31:00,43.6,40.0,30.07,NNW,339,0.0,-999.0,88,-99.99,,,0.00,weatherlink.com 1.10,2013-03-15 11:31:00,
2013-03-15 04:46:00,43.8,41.0,30.07,NNW,339,0.0,-999.0,88,-99.99,,,0.00,weatherlink.com 1.10,2013-03-15 11:46:00,
2013-03-15 05:01:00,43.9,41.0,30.07,NNW,339,0.0,-999.0,88,-99.99,,,0.00,weatherlink.com 1.10,2013-03-15 12:01:00,
2013-03-15 05:16:00,43.8,40.0,30.07,NNW,339,0.0,-999.0,87,-99.99,,,0.00,weatherlink.com 1.10,2013-03-15 12:16:00,
2013-03-15 05:46:00,43.6,40.0,30.07,NNW,339,0.0,-999.0,88,-99.99,,,0.00,weatherlink.com 1.10,2013-03-15 12:46:00,
2013-03-15 06:31:00,44.1,41.0,30.08,NNW,339,0.0,-999.0,89,-99.99,,,0.00,weatherlink.com 1.10,2013-03-15 13:31:00,
2013-03-15 06:46:00,44.1,41.0,30.08,NNW,339,0.0,-999.0,89,-99.99,,,0.00,weatherlink.com 1.10,2013-03-15 13:46:00,
2013-03-15 07:01:00,44.3,41.0,30.08,NNW,339,0.0,-999.0,89,-99.99,,,0.00,weatherlink.com 1.10,2013-03-15 14:01:00,
2013-03-15 07:16:00,44.3,41.0,30.09,NNW,339,0.0,-999.0,89,-99.99,,,0.00,weatherlink.com 1.10,2013-03-15 14:16:00,
2013-03-15 07:31:00,44.5,42.0,30.09,NNW,339,0.0,-999.0,89,-99.99,,,0.00,weatherlink.com 1.10,2013-03-15 14:31:00,
2013-03-15 07:46:00,44.3,41.0,30.09,NNW,339,0.0,-999.0,89,-99.99,,,0.00,weatherlink.com 1.10,2013-03-15 14:46:00,
2013-03-15 08:16:00,44.5,42.0,30.09,NNW,339,0.0,-999.0,89,-99.99,,,0.00,weatherlink.com 1.10,2013-03-15 15:16:00,
2013-03-15 08:46:00,45.5,43.0,30.09,NNW,339,0.0,-999.0,90,-99.99,,,0.00,weatherlink.com 1.10,2013-03-15 15:46:00,
2013-03-15 09:01:00,46.4,44.0,30.09,NNW,339,0.0,-999.0,90,-99.99,,,0.00,weatherlink.com 1.10,2013-03-15 16:01:00,
2013-03-15 09:16:00,47.3,45.0,30.09,NNW,339,0.0,-999.0,90,-99.99,,,0.00,weatherlink.com 1.10,2013-03-15 16:16:00,
2013-03-15 09:31:00,48.2,45.0,30.10,NNW,339,0.0,-999.0,89,-99.99,,,0.00,weatherlink.com 1.10,2013-03-15 16:31:00,
2013-03-15 10:01:00,51.9,46.0,30.10,NNW,339,0.0,-999.0,80,-99.99,,,0.00,weatherlink.com 1.10,2013-03-15 17:01:00,
2013-03-15 10:16:00,54.2,46.0,30.10,NNW,339,0.0,-999.0,75,-99.99,,,0.00,weatherlink.com 1.10,2013-03-15 17:16:00,
2013-03-15 10:31:00,56.3,46.0,30.10,NNW,339,0.0,-999.0,68,-99.99,,,0.00,weatherlink.com 1.10,2013-03-15 17:31:00,
2013-03-15 10:46:00,58.0,47.0,30.10,NNW,339,0.0,-999.0,67,-99.99,,,0.00,weatherlink.com 1.10,2013-03-15 17:46:00,
2013-03-15 11:01:00,59.0,45.0,30.10,WNW,296,0.0,-999.0,61,-99.99,,,0.00,weatherlink.com 1.10,2013-03-15 18:01:00,
2013-03-15 11:16:00,60.4,46.0,30.09,WNW,296,0.0,-999.0,60,-99.99,,,0.00,weatherlink.com 1.10,2013-03-15 18:16:00,
2013-03-15 11:31:00,61.8,45.0,30.09,WNW,296,0.0,-999.0,54,-99.99,,,0.00,weatherlink.com 1.10,2013-03-15 18:31:00,
2013-03-15 11:47:00,63.7,46.0,30.08,West,279,0.0,-999.0,52,-99.99,,,0.00,weatherlink.com 1.10,2013-03-15 18:47:00,
2013-03-15 12:02:00,65.8,44.0,30.07,SSE,155,0.0,-999.0,45,-99.99,,,0.00,weatherlink.com 1.10,2013-03-15 19:02:00,
2013-03-15 12:17:00,67.4,43.0,30.07,SSE,163,0.0,-999.0,42,-99.99,,,0.00,weatherlink.com 1.10,2013-03-15 19:17:00,
2013-03-15 12:32:00,68.8,43.0,30.06,SSE,163,0.0,-999.0,39,-99.99,,,0.00,weatherlink.com 1.10,2013-03-15 19:32:00,
2013-03-15 12:47:00,69.9,43.0,30.05,SSE,163,0.0,-999.0,38,-99.99,,,0.00,weatherlink.com 1.10,2013-03-15 19:47:00,
2013-03-15 13:02:00,71.1,43.0,30.05,SSE,159,3.0,-999.0,37,-99.99,,,0.00,weatherlink.com 1.10,2013-03-15 20:02:00,
2013-03-15 13:17:00,72.5,45.0,30.04,SSE,159,0.0,-999.0,37,-99.99,,,0.00,weatherlink.com 1.10,2013-03-15 20:17:00,
2013-03-15 13:32:00,73.9,45.0,30.04,SSE,163,0.0,-999.0,36,-99.99,,,0.00,weatherlink.com 1.10,2013-03-15 20:32:00,
2013-03-15 13:47:00,74.9,44.0,30.03,SSE,150,1.0,-999.0,33,-99.99,,,0.00,weatherlink.com 1.10,2013-03-15 20:47:00,
2013-03-15 14:02:00,76.3,44.0,30.03,SSE,161,1.0,-999.0,32,-99.99,,,0.00,weatherlink.com 1.10,2013-03-15 21:02:00,
2013-03-15 14:17:00,76.1,45.0,30.02,SE,146,0.0,-999.0,33,-99.99,,,0.00,weatherlink.com 1.10,2013-03-15 21:17:00,
2013-03-15 14:32:00,76.3,46.0,30.02,ESE,114,1.0,-999.0,34,-99.99,,,0.00,weatherlink.com 1.10,2013-03-15 21:32:00,
2013-03-15 14:47:00,77.4,46.0,30.02,SSE,153,0.0,-999.0,33,-99.99,,,0.00,weatherlink.com 1.10,2013-03-15 21:47:00,